MIDAS 3 DEB, 6215

Orbit data source: Space-Track

MIDAS 3 DEB, 6215 is space debris in LEO originally from a launch on Wed, 12 Jul 1961 UTC launched from the Air Force Western Test Range (AFWTR). Debris objects in space refer to the collection of defunct objects orbiting the Earth. Examples of debris include non-operational satellites, rocket bodies, and fragments generated from explosions, collisions, or faulty payload assembly.

Loading next visibility...
MIDAS 3 DEB details
Identifier
6215, 1961-018E
Orbit
LEO
Last TLE update2 weeks ago
Origin
Flag of USUSAF SSD (US)
ManufacturerUnknown
MissionSpacecraft
Bus & MotorUnknown
MassUnknown
Launch date (UTC)
1961-07-12 (64 years ago)
Launch vehicleUnknown
Launch site
Air Force Western Test Range (AFWTR)
Object type
Payload
Rocket body
Debris
Shape & HBRUnknown
Radar Cross SectionMedium (>0.1 m² and <1 m²)

Expand to show TLE details & history

TLE from 2 weeks ago
0 MIDAS 3 DEB
1  6215U 61018E   25033.83834162  .00000052  00000-0  18311-1 0  9990
2  6215  91.1035 182.1776 0055075  51.1166 309.4602  8.90942155 65490
Epoch: 2025-02-02T20:07Z
Definitive object data (Epoch: 2025-02-02T20:07:12.715Z)
Latitude0.00002°
Longitude107.10803°
Altitude3,418.71 km
Speed6.39 km/s
True Right ascension12h 08m 42s
True Declination0° 00' 00"
Sunlit
Object was in daylight at TLE epoch
Visualization TLE readout
Latitude-45.2165°
Longitude-73.39958°
Altitude3,521.237 km
Speed6.329 km/s
Apparent Right ascension21h 14m 34s
Apparent Declination-60° 34' 14"
Sunlit
Object is in daylight
Visualization observer readout
Local Sidereal Time04:08:36
Azimuth218.792° SW
Elevation-40.307°
Doppler factor1
Orbital elements
Apogee altitude3,502.589 km
Perigee altitude3,394.349 km
Semi-major axis9,826.606 km
Eccentricity0.0055075
Inclination91.1035°
RAAN182.1776°
Arg. of periapsis51.1166°
True anomaly308.9708°
Mean anomaly309.4602°
Eccentric anomaly309.21572°
Mean motion2.22812 °/min
BSTAR0.018311
Orbital period161.57 mins
Loading maneuver chart data...
Loading historical data...
Loading historical data...
Loading historical data...
Loading historical data...
Loading historical data...
Loading historical data...
Loading historical data...

MIDAS 3 DEB Visibility forecast

Observer location: undefined°, undefined

Span
Click to sort rows by Start time (UTC) header in descending order
Start Az.
Max El. time (UTC)
Max El. Az.
Max El.
End time (UTC)
End Az.
31 mins2025-02-17 07:47:57.661Z140.11° SSE2025-02-17 08:02:57.661Z73.346° E38.333°2025-02-17 08:18:57.661Z3.238° NNE
31 mins2025-02-17 10:28:57.661Z209.721° SW2025-02-17 10:43:57.661Z280.794° WNW36.244°2025-02-17 10:59:57.661Z349.841° N
30 mins2025-02-17 19:17:57.661Z14.766° NNE2025-02-17 19:32:57.661Z79.262° E31.931°2025-02-17 19:47:57.661Z141.469° SSE
33 mins2025-02-17 21:57:57.661Z358.395° N2025-02-17 22:13:57.661Z286.819° WNW41.745°2025-02-17 22:30:57.661Z209.113° SW
13 mins2025-02-18 00:42:57.661Z336.551° NNW2025-02-18 00:48:57.661Z314.901° NW13.92°2025-02-18 00:55:57.661Z290.019° WNW
|